STARLINK-30919, 58411

Orbit data source: Space-Track

STARLINK-30919, 58411 is a payload satellite owned by SpaceX/Seattle (US) in LEO that was launched on Wed, 22 Nov 2023 UTC via an FALCON 9 launch vehicle from the Air Force Eastern Test Range (AFETR). Payload-class satellites include a variety of spacecraft equipped with specific instruments for various scientific and technological missions. These include communications satellites like Starlink; space stations such as the ISS; scientific satellites like the Hubble; Earth observation satellites from companies like Planet Labs, Umbra, and HawkEye 360; GPS; miniature CubeSats for education and research; and military/defense satellites.

Loading next visibility...
Identifier
58411, 2023-180K
Orbit
LEO
Country
Flag of USUS
Related business
Manufacturer
SpaceX/Seattle
Mission
Operational Commercial Communications
Bus & Motor
STARLINK V2M, Unknown motor
Mass
730 kg wet, ~700 kg dry
Launch date (UTC)
2023-11-22 (3 years ago)
Launch vehicle
FALCON 9
Launch site
Air Force Eastern Test Range (AFETR)
Object type
Payload
Rocket body
Debris
Shape & HBR
Box + 2 Pan, 17.7 m
Radar Cross Section
33.884 m², Large (>1 m²)

Expand to show TLE details & history
Last TLE update: 2 days ago

TLE from 2 days ago
0 STARLINK-30919
1 58411U 23180K   26171.36737840  .00001961  00000-0  80803-4 0  9998
2 58411  43.0023 192.2280 0001083 277.5371  82.5358 15.27568133143236
Epoch: 2026-06-20T08:49Z
TLE epoch observation values (Epoch: 2026-06-20T08:49:01.493Z)
Latitude
-0°
Longitude
151.38876°
Altitude
482.764 km
Speed
7.626 km/s
True Right ascension
12h 48m 54s
True Declination
0° 00' 00"
Sunlit
Object was in daylight at epoch
Visualization orbit readout
Latitude
Unknown
Longitude
Unknown
Altitude
Unknown
Speed
Unknown
Apparent Right ascension
Unknown
Apparent Declination
Unknown
Sunlit
N/A
Visualization observer readout
Local Sidereal Time
21:43:03
Azimuth
Unknown
Elevation
Unknown
Doppler factor
Unknown
Orbital elements
Apogee altitude
485.773 km
Perigee altitude
484.286 km
Semi-major axis
6,863.166 km
Eccentricity
0.00011
Inclination
43.0023°
RAAN
192.228°
Arg. of periapsis
277.5371°
True anomaly
82.54811°
Mean anomaly
82.5358°
Eccentric anomaly
82.54195°
Mean motion
3.8173 °/min
Orbital period
94.31 mins
BSTAR
0.000080803
Loading maneuver chart data...
Computing Atmospheric mass density...
Loading historical data...
Loading historical data...
Loading historical data...
Loading historical data...
Loading historical data...
Loading historical data...
Loading historical data...

Documentation

Showing up to 5 results
|